Orbital Elements
The following orbital elements are taken from MPC 56804:
Epoch 2009 July 28.0 TT = JDT 2455040.5
T 2009 Aug. 9.6270 TT MPC
q 1.213932 (2000.0) P Q
n 0.1189043 Peri. 57.9996 -0.7224176 -0.6618944
a 4.095791 Node 79.7183 +0.5457906 -0.7234538
e 0.703615 Incl. 11.7292 +0.4245296 -0.1962407
P 8.29
From 621 observations 1976-2001, mean residual 0".9. Nongravitational
parameters A1 = +0.10, A2 = -0.0587.
|